Jackson, MI

9:49 AM EDT on October 23, 2019 (GMT -0400)
Jackson County-Reynolds

Weather History for KJXN - August, 2019

Change the Weather History Date:

Tuesday, August 27, 2019

  Actual Average Record
Temperature  
Mean Temperature 70 °F 68 °F  
Max Temperature 79 °F 79 °F 98 °F (1948)
Min Temperature 61 °F 58 °F 46 °F (1968)
Degree Days  
Heating Degree Days 0 1  
Month to date heating degree days 9 23  
Since 1 June heating degree days 67 89  
Since 1 July heating degree days 9 34  
Cooling Degree Days 5 4  
Month to date cooling degree days 148 148  
Year to date cooling degree days 553 513  
Since 1 June cooling degree days 543 476  
Growing Degree Days 20 (Base 50)    
Moisture  
Dew Point 65 °F    
Average Humidity 82    
Maximum Humidity 93    
Minimum Humidity 50    
Precipitation  
Precipitation 0.04 in 0.11 in 1.28 in (1961)
Month to date precipitation 0.82 3.03  
Year to date precipitation 21.01 20.48  
Sea Level Pressure  
Sea Level Pressure 29.79 in    
Wind  
Wind Speed 8 mph ()    
Max Wind Speed 15 mph    
Max Gust Speed 22 mph    
Visibility 9.6 miles    
Events Rain    
T = Trace of Precipitation, MM = Missing Value Source: Averaged Metar Reports

Daily Weather History Graph

Daily Weather History Graph

Search for Another Location

Airport or City:

Astronomy

Aug. 27, 2019 Rise Set
Actual Time 6:57 AM EDT 8:20 PM EDT
Civil Twilight 6:28 AM EDT 8:49 PM EDT
Nautical Twilight 5:53 AM EDT 9:24 PM EDT
Astronomical Twilight 5:15 AM EDT 10:01 PM EDT
Moon 3:17 AM EDT (8/27) 6:44 PM EDT (8/27)
Length of Visible Light 14h 21m
Length of Day
13h 22m
Waning Crescent, 11% of the Moon is Illuminated
Aug 27
Waning Crescent
Aug 30
New
Sep 5
First Quarter
Sep 14
Full
Sep 21
Last Quarter

Hourly Weather History & Observations

Time (EDT) Temp. Dew Point Humidity Pressure Visibility Wind Dir Wind Speed Gust Speed Precip Events Conditions
12:56 AM 68.0 °F 64.9 °F 90% 29.78 in 4.0 mi SSE 13.8 mph 21.9 mph 0.01 in Rain Light Rain
1:56 AM 68.0 °F 66.0 °F 93% 29.76 in 10.0 mi SSE 11.5 mph - 0.03 in   Overcast
2:56 AM 69.1 °F 66.9 °F 93% 29.75 in 10.0 mi SSE 10.4 mph - N/A   Overcast
3:56 AM 70.0 °F 66.9 °F 90% 29.75 in 10.0 mi South 8.1 mph - N/A   Overcast
4:27 AM 70.0 °F 66.9 °F 90% 29.77 in 10.0 mi South 9.2 mph - N/A   Overcast
4:45 AM 70.0 °F 66.9 °F 90% 29.77 in 10.0 mi South 9.2 mph - N/A   Scattered Clouds
4:56 AM 70.0 °F 66.9 °F 90% 29.75 in 10.0 mi South 8.1 mph - N/A   Scattered Clouds
5:05 AM 70.0 °F 66.9 °F 90% 29.76 in 10.0 mi South 8.1 mph - N/A   Mostly Cloudy
5:12 AM 70.0 °F 66.9 °F 90% 29.76 in 10.0 mi South 6.9 mph - N/A   Mostly Cloudy
5:24 AM 70.0 °F 66.9 °F 90% 29.76 in 10.0 mi South 9.2 mph - N/A   Mostly Cloudy
5:35 AM 70.0 °F 66.9 °F 90% 29.76 in 10.0 mi SSW 5.8 mph - N/A   Overcast
5:56 AM 70.0 °F 66.9 °F 90% 29.75 in 10.0 mi SSW 6.9 mph - N/A   Overcast
6:25 AM 69.1 °F 66.9 °F 93% 29.77 in 10.0 mi SW 6.9 mph - N/A   Mostly Cloudy
6:44 AM 69.1 °F 66.9 °F 93% 29.77 in 10.0 mi SSW 6.9 mph - N/A   Scattered Clouds
6:56 AM 69.1 °F 66.0 °F 90% 29.76 in 9.0 mi SSW 6.9 mph - N/A   Scattered Clouds
7:13 AM 69.1 °F 66.0 °F 90% 29.77 in 9.0 mi South 5.8 mph - N/A   Partly Cloudy
7:56 AM 69.1 °F 66.0 °F 90% 29.78 in 8.0 mi SSW 5.8 mph - N/A   Scattered Clouds
8:20 AM 69.1 °F 66.0 °F 90% 29.79 in 8.0 mi SSW 5.8 mph - N/A   Mostly Cloudy
8:26 AM 69.1 °F 66.0 °F 90% 29.79 in 8.0 mi SSW 6.9 mph - N/A   Scattered Clouds
8:39 AM 69.1 °F 66.0 °F 90% 29.79 in 8.0 mi SSW 6.9 mph - N/A   Mostly Cloudy
8:53 AM 69.8 °F 66.2 °F 88% 29.79 in 9.0 mi SSW 8.1 mph - N/A   Scattered Clouds
8:56 AM 70.0 °F 66.9 °F 90% 29.78 in 9.0 mi SSW 8.1 mph - N/A   Scattered Clouds
9:16 AM 71.1 °F 66.9 °F 87% 29.79 in 10.0 mi SSW 8.1 mph - N/A   Mostly Cloudy
9:35 AM 71.1 °F 66.0 °F 84% 29.79 in 10.0 mi SW 11.5 mph - N/A   Mostly Cloudy
9:56 AM 72.0 °F 66.0 °F 81% 29.78 in 10.0 mi SW 9.2 mph - N/A   Mostly Cloudy
10:11 AM 72.0 °F 66.0 °F 81% 29.80 in 10.0 mi SW 8.1 mph - N/A   Overcast
10:56 AM 73.0 °F 66.0 °F 79% 29.80 in 10.0 mi SW 13.8 mph - N/A   Mostly Cloudy
11:44 AM 73.0 °F 64.9 °F 76% 29.82 in 10.0 mi SW 10.4 mph - N/A   Overcast
11:56 AM 73.0 °F 66.0 °F 79% 29.81 in 10.0 mi WSW 10.4 mph - N/A   Overcast
12:56 PM 75.0 °F 64.9 °F 71% 29.80 in 10.0 mi SW 10.4 mph - N/A   Partly Cloudy
1:56 PM 75.9 °F 64.0 °F 67% 29.80 in 10.0 mi WSW 10.4 mph - N/A   Partly Cloudy
2:56 PM 78.1 °F 64.0 °F 62% 29.81 in 10.0 mi WSW 9.2 mph - N/A   Scattered Clouds
3:56 PM 77.0 °F 61.0 °F 58% 29.80 in 10.0 mi WSW 10.4 mph 20.7 mph N/A   Partly Cloudy
4:56 PM 79.0 °F 60.1 °F 52% 29.80 in 10.0 mi West 10.4 mph - N/A   Partly Cloudy
5:56 PM 78.1 °F 62.1 °F 58% 29.81 in 10.0 mi WSW 8.1 mph - N/A   Partly Cloudy
6:56 PM 77.0 °F 57.9 °F 52% 29.81 in 10.0 mi WSW 10.4 mph 17.3 mph N/A   Clear
7:56 PM 72.0 °F 57.9 °F 61% 29.83 in 10.0 mi WSW 5.8 mph - N/A   Clear
8:56 PM 66.9 °F 57.0 °F 70% 29.86 in 10.0 mi Calm Calm - N/A   Clear
9:56 PM 63.0 °F 57.0 °F 81% 29.86 in 10.0 mi Calm Calm - N/A   Mostly Cloudy
10:56 PM 64.0 °F 59.0 °F 84% 29.86 in 10.0 mi WSW 3.5 mph - N/A   Scattered Clouds
11:56 PM 63.0 °F 57.9 °F 84% 29.86 in 10.0 mi SSW 4.6 mph - N/A   Clear